Flag Weather past 2 weeks in Bellinzona, Ticino, Switzerland

Now
48 °F

Cool.


Feels Like: 48 °F
Forecast: 46 / 60 °F
Wind: No wind

Location: Locarno-Magadino

Current Time: Nov 29, 2014 at 2:55:21 AM

Latest Report: Nov 29, 2014 at 2:00 AM


Visibility: N/A

Pressure: 30.04 "Hg

Humidity: 97%

Dew point: 47 °F

Location of BellinzonaLocation

Historic Weather in Bellinzona — Graph

°F

Bellinzona temperature yesterday

Maximum temperature yesterday: 49 °F (at 4:00 PM)
Minimum temperature yesterday: 46 °F (at 5:00 AM)
Average temperature yesterday: 47 °F

Past Weeks' High & Low Weather Summary

 TemperatureHumidityPressure
High56 °F (Nov 14, 2:00 PM)100% (Nov 15, 2:00 AM)30.39 "Hg (Nov 15, 2:00 AM)
Low30 °F (Nov 22, 8:00 AM)53% (Nov 22, 2:00 PM)29.59 "Hg (Nov 15, 11:00 PM)
Average44 °F92%30.05 "Hg
* Reported Nov 14 1:00 AM — Nov 29 1:00 AM, Bellinzona, Weather by CustomWeather, © 2014

Note: Actual official high and low records may vary slightly from our data, if they occured in-between our weather recording intervals... More about our weather records

Advertising

Bellinzona weather history for previous 24 hours

 ConditionsComfort  
Time TempWeatherWind HumidityBarometerVisibility
1:00 AM
Nov 29
48 °FCool.No wind99%30.05 "HgN/A
12:00 AM47 °FCool.1 mph99%30.05 "HgN/A
11:00 PM
Nov 28
47 °FCool.1 mph98%30.05 "HgN/A
10:00 PM47 °FCool.No wind99%30.04 "HgN/A
9:00 PM47 °FCool.No wind100%30.03 "HgN/A
8:00 PM47 °FCool.No wind99%30.01 "HgN/A
7:00 PM47 °FCool.2 mph98%30.01 "HgN/A
6:00 PM48 °FCool.No wind96%29.99 "HgN/A
5:00 PM48 °FCool.2 mph95%29.98 "HgN/A
4:00 PM49 °FCool.No wind97%29.98 "HgN/A
3:00 PM48 °FCool.1 mph96%29.97 "HgN/A
2:00 PM48 °FCool.2 mph97%29.98 "HgN/A
1:00 PM48 °FCool.1 mph97%29.98 "HgN/A
12:00 PM47 °FCool.1 mph97%29.98 "HgN/A
11:00 AM47 °FCool.1 mph96%29.99 "HgN/A
10:00 AM47 °FCool.No wind97%29.99 "HgN/A
9:00 AM47 °FCool.2 mph98%29.99 "HgN/A
8:00 AM47 °FCool.2 mph97%29.98 "HgN/A
7:00 AM46 °FCool.1 mph99%29.96 "HgN/A
6:00 AM46 °FCool.1 mph98%29.95 "HgN/A
5:00 AM46 °FCool.1 mph99%29.95 "HgN/A
4:00 AM46 °FCool.1 mph98%29.96 "HgN/A
3:00 AM46 °FCool.1 mph99%29.97 "HgN/A
2:00 AM46 °FCool.1 mph98%29.97 "HgN/A
Weather by CustomWeather, © 2014

See weather overviewHow to use our weather pages